Orbital Elements at Epoch 2459200.5 (2020-Dec-17.0) TDB
Reference: JPL 10 (heliocentric ecliptic J2000)
Element | Value | Uncertainty (1-sigma) | Units |
e | .04041455651814476 | 5.7228e-08 | |
a | 3.090239205825151 | 3.6061e-08 | au |
q | 2.965348558786743 | 1.7851e-07 | au |
i | 2.077498880875993 | 5.2783e-06 | deg |
node | 102.8521781175693 | 0.00017166 | deg |
peri | 307.4168189990378 | 0.00018397 | deg |
M | 257.8455786038525 | 6.5795e-05 | deg |
tp | 2459763.542582623059 (2022-Jul-03.04258262) | 0.00036531 | TDB |
period | 1984.205156997203 5.43 | 3.4731e-05 9.509e-08 | d yr |
n | .181432851704108 | 3.1758e-09 | deg/d |
Q | 3.215129852863558 | 3.7518e-08 | au |
|
| | Orbit Determination Parameters
Additional Information
|